www.pogodaiklimat.ru

Погода и климат >> Архив погоды >> Пакистан >> Окара


ПОГОДА в Окаре

  • Прогноз погоды в Окаре
  • Монитор погоды в Окаре

АРХИВ ПОГОДЫ в Окаре

Время (UTC), дата Ветер
(напр.,м/с)
 
Видим.   Явления Облачность Т
(С)
Тd
(С)
f
(%)
Тe
(С)
Тes
(С)
Комфортность P
(гПа)
Po
(гПа)
Тmin
(С)
Tmax
(С)
R
(мм)
R24
(мм)
S
(см)
09 13.09 ЮВ 1 4000 м 4/4 1000 м
[Sc]
+38.0 +27.2 54 +56 +65 опасность
перегрева
1003.2 983.6
12 13.09 штиль 0 4000 м дым 4/4 1200 м
[Sc]
+37.0 +25.2 51 +51 +52 опасность
перегрева
1001.7 981.9 +38.0
15 13.09 штиль 0 4000 м дым ясно +34.5 +28.5 71 +57 +57 опасность
перегрева
1003.0 983.1
18 13.09 штиль 0 4000 м дым ясно +33.0 +28.3 76 +54 +54 опасность
перегрева
1003.6 983.6
21 13.09 штиль 0 4000 м дым ясно +31.5 +28.1 82 +52 +52 опасность
перегрева
1003.2 983.1
00 14.09 штиль 0 4000 м дым ясно +30.0 +27.3 85 +48 +48 опасность
перегрева
1003.7 983.5
03 14.09 штиль 0 4000 м дым ясно +30.0 +27.3 85 +48 +53 опасность
перегрева
1005.4 985.2 +27.8
06 14.09 ЮВ 1 4000 м дым 4/4 1000 м
[Sc]
+35.0 +27.6 66 +55 +66 опасность
перегрева
1005.6 985.8
09 14.09 штиль 0 4000 м 6/6 1200 м
[Sc]
+38.0 +26.4 52 +54 +61 опасность
перегрева
1004.0 984.3
12 14.09 ЮВ 3 4000 м 6/6 1200 м
[Sc]
+37.0 +26.8 56 +54 +55 опасность
перегрева
1003.0 983.2 +39.0
15 14.09 штиль 0 4000 м дым ясно +33.5 +26.6 67 +50 +50 опасность
перегрева
1004.0 984.1
18 14.09 штиль 0 4000 м дым ясно +31.5 +26.7 76 +49 +49 опасность
перегрева
1005.3 985.1
21 14.09 штиль 0 4000 м дым ясно +30.0 +26.5 82 +46 +46 опасность
перегрева
1004.6 984.4
00 15.09 штиль 0 4000 м дым ясно +29.0 +26.2 85 +44 +44 опасность
перегрева
1005.4 985.0
03 15.09 ЮВ 2 4000 м дым ясно +30.0 +26.5 82 +46 +50 опасность
перегрева
1006.2 986.2 +28.0
06 15.09 ЮВ 3 4000 м дым ясно +35.0 +26.8 63 +53 +65 опасность
перегрева
1006.5 986.5
09 15.09 штиль 0 4000 м 4/4 1200 м
[Sc]
+37.5 +26.6 54 +54 +65 опасность
перегрева
1004.4 984.7
12 15.09 штиль 0 4000 м 6/6 1200 м
[Sc]
+38.0 +25.6 49 +52 +53 опасность
перегрева
1002.1 982.5 +38.5
18 15.09 штиль 0 4000 м дым ясно +32.0 +25.8 70 +47 +47 опасность
перегрева
1003.6 983.4
21 15.09 штиль 0 4000 м дым ясно +30.0 +25.8 78 +45 +45 опасность
перегрева
1003.4 983.2
00 16.09 штиль 0 4000 м дым ясно +28.5 +25.7 85 +42 +42 опасность
перегрева
1003.6 983.2
06 16.09 штиль 0 4000 м ясно +34.0 +25.7 62 +49 +70 опасность
перегрева
1005.1 985.1
09 16.09 ЮВ 2 4000 м 5/5 1200 м
[Sc]
+37.0 +26.0 53 +52 +58 опасность
перегрева
1002.2 982.5
12 16.09 штиль 0 4000 м ясно +37.0 +27.6 59 +56 +58 опасность
перегрева
1000.0 980.2 +38.5
15 16.09 штиль 0 4000 м ясно +34.0 +27.2 68 +53 +53 опасность
перегрева
1000.8 981.0
18 16.09 штиль 0 4000 м дым ясно +31.0 +26.1 75 +46 +46 опасность
перегрева
1002.6 982.4
21 16.09 штиль 0 4000 м дым ясно +29.5 +25.3 78 +43 +43 опасность
перегрева
1001.4 981.3
00 17.09 штиль 0 4000 м дым ясно +28.0 +25.2 85 +41 +41 опасность
перегрева
1001.2 980.8
03 17.09 Ю 2 4000 м дым ясно +30.0 +25.8 78 +45 +48 опасность
перегрева
1002.6 982.4 +27.0
06 17.09 штиль 0 4000 м ясно +34.0 +25.7 62 +49 +70 опасность
перегрева
1003.9 983.9
09 17.09 штиль 0 4000 м ясно +37.5 +24.2 47 +49 +67 опасность
перегрева
1003.5 983.8
12 17.09 штиль 0 4000 м 3/3 1200 м
[Sc]
+37.5 +25.0 49 +51 +52 опасность
перегрева
1002.4 982.6 +39.5
15 17.09 штиль 0 4000 м дым ясно +34.0 +25.7 62 +49 +49 опасность
перегрева
1003.4 983.5
18 17.09 ЮВ 2 4000 м дым ясно +31.5 +26.0 73 +47 +47 опасность
перегрева
1004.5 984.3
21 17.09 штиль 0 4000 м дым ясно +30.5 +25.6 75 +45 +45 опасность
перегрева
1003.8 983.7
00 18.09 штиль 0 4000 м дым ясно +28.5 +25.7 85 +42 +42 опасность
перегрева
1004.2 983.8
03 18.09 В 2 4000 м дым ясно +29.5 +26.0 81 +44 +48 опасность
перегрева
1007.1 986.9 +26.8
06 18.09 СВ 2 4000 м дым ясно +34.5 +25.5 60 +49 +64 опасность
перегрева
1008.5 988.5
09 18.09 С 4 4000 м 6/6 1200 м
[Sc]
+37.0 +24.4 49 +49 +53 опасность
перегрева
1007.5 987.7
12 18.09 штиль 0 4000 м 4/4 1200 м
[Sc]
+36.0 +25.6 55 +51 +52 опасность
перегрева
1006.4 986.6 +37.3
15 18.09 штиль 0 4000 м дым ясно +33.0 +26.1 67 +49 +49 опасность
перегрева
1006.9 986.9
18 18.09 штиль 0 4000 м дым ясно +32.0 +26.5 73 +49 +49 опасность
перегрева
1007.9 987.7
21 18.09 штиль 0 4000 м дым ясно +30.5 +27.1 82 +48 +48 опасность
перегрева
1007.3 987.1
00 19.09 штиль 0 4000 м дым ясно +28.5 +26.7 90 +44 +44 опасность
перегрева
1008.4 988.0
03 19.09 ЮВ 4 4000 м дым ясно +28.5 +25.0 81 +41 +43 опасность
перегрева
1010.7 990.3 +26.4
06 19.09 ЮВ 3 4000 м дым ясно +33.0 +24.6 61 +46 +58 опасность
перегрева
1011.5 991.5
09 19.09 ЮВ 2 4000 м 4/4 1200 м
[Sc]
+35.5 +24.3 52 +47 +55 опасность
перегрева
1009.4 989.5
12 19.09 ЮВ 1 4000 м 5/5 1200 м
[Sc]
+34.0 +24.9 59 +47 +48 опасность
перегрева
1007.8 987.8 +36.0
15 19.09 ЮВ 1 4000 м 4/4 1200 м
[Sc]
+31.0 +26.4 77 +47 +47 опасность
перегрева
1009.2 989.0
18 19.09 ЮВ 1 4000 м дым ясно +29.5 +25.3 78 +43 +43 опасность
перегрева
1000.1 989.9
21 19.09 ЮВ 1 4000 м дым ясно +28.0 +24.4 81 +39 +39 очень
душно
1009.9 989.5
00 20.09 ЮВ 1 4000 м дым ясно +27.0 +24.1 84 +37 +37 очень
душно
1010.4 990.0
03 20.09 ЮВ 1 4000 м дым ясно +27.0 +24.1 84 +37 +42 очень
душно
1011.2 990.8 +25.0
06 20.09 ЮВ 1 4000 м 4/4 1200 м
[Sc]
+33.0 +25.3 64 +47 +58 опасность
перегрева
1011.9 991.9

 

Местоположение метеостанции Окара (Пакистан): широта 30.80 долгота 73.43 высота над уровнем моря 180 м.

В архиве по умолчанию представлена погода в Окаре за последнюю неделю. Архивные данные за месяц целиком и за предыдущие месяцы, начиная с января 2011 года, Вы можете получить, выбрав интересующий диапазон дат из раскрывающегося списка и нажав кнопку "Ввод!".


*Определитесь, кто Вы:
робот инопланетянин человек

Внимание! Время в таблицах - всемирное. Для получения местного времени необходимо прибавить поправку, которая равна 5 ч.

Смотрите также архив погоды в соседних городах и на ближайших метеорологических станциях:

Погода в Сахивале (Пакистан) (42 км)
Погода в Фейсалабаде (Пакистан) (77 км)
Погода в Тоба Тек Сингх (Пакистан) (94 км)
Погода в Бахавалнагаре (Пакистан) (96 км)
Погода в Касуре (Пакистан) (105 км)
Погода в Шри-Ганганагаре (Раджастхан, Индия) (106 км)
Погода на Авиабазе Raifiqui (Пакистан) (118 км)
Погода в Джанге (Пакистан) (118 км)
Погода в Лахоре (Пакистан) (120 км)
Погода в Лахор аэропорту (Пакистан) (122 км)

Пояснения к столбцам:

Ветер - указаны скорость ветра в м/с - средняя за 10 мин, порывы в срок и между сроками (в фигурных скобках) и направление, откуда дует ветер: С - северный, СВ - северо-восточный, В - восточный, ЮВ - юго-восточный, Ю - южный, ЮЗ - юго-западный, З - западный, СЗ - северо-западный.
Видимость - горизонтальная дальность видимости в метрах или километрах. При видимости от 1 до 10 км при отсутствии осадков обычно наблюдается дымка, при ухудшении видимости до 1 км и менее - туман. В сухую погоду видимость может ухудшаться дымом, пылью или мглою.
Явления - указаны атмосферные явления, наблюдавшиеся в срок или в последний час перед сроком; фигурными скобками обозначены явления, наблюдавшиеся между сроками (за 1-3 часа до срока); квадратными скобками обозначены град или гололедные отложения с указанием их диаметра в мм.
Облачность - указаны через наклонную черту общая и нижняя облачность в баллах и высота нижней границы облаков в метрах; квадратными скобками обозначены формы облаков: Ci - перистые, Cs - перисто-слоистые, Cc - перисто-кучевые, Ac - высококучевые, As - высокослоистые, Sc - слоисто-кучевые, Ns - слоисто-дождевые, Cu - кучевые, Cb - кучево-дождевые. Подробнее классификацию облаков см. в Атласе облаков (PDF).
T - Температура воздуха - температура, измеренная на высоте 2 м над землей.
Td - Температура точки росы - температура, при понижении до которой содержащийся в воздухе водяной пар достигнет насыщения.
f - Относительная влажность воздуха - влажноcть воздуха, измеренная на высоте 2 м над землей.
Te - Эффективная температура - температура, которую ощущает одетый по сезону человек в тени. Характеристика душности погоды. При расчете учитывается влияние влажности воздуха и скорости ветра на теплоощущения человека.
Tes - Эффективная температура на солнце - температура, которую ощущает человек, с поправкой на солнечный нагрев. Характеристика знойности погоды. Зависит от высоты солнца над горизонтом, облачности и скорости ветра. Ночью, в пасмурную погоду, а также при ветре 12 м/с и более поправка равна нулю.
P - Атмосферное давление - приведенное к уровню моря атмосферное давление.
Po - Атмосферное давление - измеренное на уровне метеостанции атмосферное давление.
Tmin - Минимальная температура - минимум температуры воздуха на высоте 2 м над землей.
Tmax - Максимальная температура - максимум температуры воздуха на высоте 2 м над землей.
R - Количество осадков - Количество выпавших осадков за период времени, мм. При наведении курсора мыши на число - период времени, за который выпало указанное количество осадков.
R24 - Количество осадков - Количество выпавших осадков за 24 часа, мм.
S - Снежный покров - Высота снежного покрова, см. При наведении курсора мыши на число - состояние снежного покрова и степень покрытия местности в баллах.